Time,TemperatureF,DewpointF,PressureIn,WindDirection,WindDirectionDegrees,WindSpeedMPH,WindSpeedGustMPH,Humidity,HourlyPrecipIn,Conditions,Clouds,dailyrainin,SoftwareType,DateUTC
2013-03-29 00:03:00,55.4,50.3,30.01,SSE,154,3.0,5.0,83,0.00,,,0.00,Wunderground v.1.15,2013-03-28 10:03:00,
2013-03-29 00:13:00,55.3,50.2,30.01,SE,124,2.0,3.0,83,0.00,,,0.00,Wunderground v.1.15,2013-03-28 10:13:00,
2013-03-29 00:23:00,55.3,50.5,30.01,SE,129,1.0,2.0,84,0.00,,,0.00,Wunderground v.1.15,2013-03-28 10:23:00,
2013-03-29 00:28:00,55.2,50.4,30.01,ESE,121,1.0,3.0,84,0.00,,,0.00,Wunderground v.1.15,2013-03-28 10:28:00,
2013-03-29 00:33:00,55.3,50.5,30.01,SE,131,2.0,3.0,84,0.00,,,0.00,Wunderground v.1.15,2013-03-28 10:33:00,
2013-03-29 00:43:00,55.3,50.5,30.01,SE,129,2.0,2.0,84,0.00,,,0.00,Wunderground v.1.15,2013-03-28 10:43:00,
2013-03-29 00:48:00,55.4,50.6,30.01,SE,141,1.0,3.0,84,0.00,,,0.00,Wunderground v.1.15,2013-03-28 10:48:00,
2013-03-29 00:58:00,55.3,50.5,30.01,SSE,158,1.0,1.0,84,0.00,,,0.00,Wunderground v.1.15,2013-03-28 10:58:00,
2013-03-29 01:03:00,55.4,50.6,30.01,ESE,120,1.0,1.0,84,0.00,,,0.00,Wunderground v.1.15,2013-03-28 11:03:00,
2013-03-29 01:08:00,55.3,50.9,30.01,East,94,1.0,2.0,85,0.00,,,0.00,Wunderground v.1.15,2013-03-28 11:08:00,
2013-03-29 01:18:00,55.3,50.9,30.01,ESE,120,2.0,4.0,85,0.00,,,0.00,Wunderground v.1.15,2013-03-28 11:18:00,
2013-03-29 01:28:00,55.3,50.9,30.01,ESE,102,2.0,2.0,85,0.00,,,0.00,Wunderground v.1.15,2013-03-28 11:28:00,
2013-03-29 01:33:00,55.3,50.9,30.02,SE,128,2.0,2.0,85,0.00,,,0.00,Wunderground v.1.15,2013-03-28 11:33:00,
2013-03-29 01:43:00,55.3,50.9,30.02,ENE,70,2.0,2.0,85,0.00,,,0.00,Wunderground v.1.15,2013-03-28 11:43:00,
2013-03-29 01:53:00,55.3,50.9,30.02,SE,133,2.0,3.0,85,0.00,,,0.00,Wunderground v.1.15,2013-03-28 11:53:00,
2013-03-29 01:58:00,55.3,50.9,30.02,SE,136,2.0,2.0,85,0.00,,,0.00,Wunderground v.1.15,2013-03-28 11:58:00,
2013-03-29 02:03:00,55.3,50.9,30.02,SE,143,2.0,2.0,85,0.00,,,0.00,Wunderground v.1.15,2013-03-28 12:03:00,
2013-03-29 02:13:00,55.4,51.0,30.02,SE,125,1.0,1.0,85,0.00,,,0.00,Wunderground v.1.15,2013-03-28 12:13:00,
2013-03-29 02:23:00,55.4,51.0,30.02,SE,125,2.0,3.0,85,0.00,,,0.00,Wunderground v.1.15,2013-03-28 12:23:00,
2013-03-29 02:28:00,55.4,51.0,30.02,East,89,2.0,2.0,85,0.00,,,0.00,Wunderground v.1.15,2013-03-28 12:28:00,
2013-03-29 02:33:00,55.4,50.6,30.02,SE,124,2.0,2.0,84,0.00,,,0.00,Wunderground v.1.15,2013-03-28 12:33:00,
2013-03-29 02:43:00,55.4,50.6,30.02,SE,129,2.0,5.0,84,0.00,,,0.00,Wunderground v.1.15,2013-03-28 12:43:00,
2013-03-29 02:53:00,55.4,50.6,30.02,SE,127,1.0,3.0,84,0.00,,,0.00,Wunderground v.1.15,2013-03-28 12:53:00,
2013-03-29 02:58:00,55.4,50.6,30.02,SE,143,1.0,1.0,84,0.00,,,0.00,Wunderground v.1.15,2013-03-28 12:58:00,
2013-03-29 03:03:00,55.3,50.5,30.02,ESE,102,0.0,1.0,84,0.00,,,0.00,Wunderground v.1.15,2013-03-28 13:03:00,
2013-03-29 03:13:00,55.4,50.6,30.02,SE,131,0.0,1.0,84,0.00,,,0.00,Wunderground v.1.15,2013-03-28 13:13:00,
2013-03-29 03:23:00,55.4,51.0,30.03,SE,129,1.0,2.0,85,0.00,,,0.00,Wunderground v.1.15,2013-03-28 13:23:00,
2013-03-29 03:28:00,55.4,51.0,30.03,ESE,120,0.0,0.0,85,0.00,,,0.00,Wunderground v.1.15,2013-03-28 13:28:00,
2013-03-29 03:33:00,55.4,51.0,30.03,East,94,0.0,1.0,85,0.00,,,0.00,Wunderground v.1.15,2013-03-28 13:33:00,
2013-03-29 03:43:00,55.5,51.1,30.03,SE,142,1.0,1.0,85,0.00,,,0.00,Wunderground v.1.15,2013-03-28 13:43:00,
2013-03-29 03:53:00,55.5,51.1,30.03,ESE,108,0.0,2.0,85,0.00,,,0.00,Wunderground v.1.15,2013-03-28 13:53:00,
2013-03-29 03:58:00,55.5,51.1,30.03,ESE,120,1.0,1.0,85,0.00,,,0.00,Wunderground v.1.15,2013-03-28 13:58:00,
2013-03-29 04:03:00,55.5,51.1,30.03,ESE,113,1.0,1.0,85,0.00,,,0.00,Wunderground v.1.15,2013-03-28 14:03:00,
2013-03-29 04:13:00,55.5,51.1,30.03,SE,127,1.0,1.0,85,0.00,,,0.00,Wunderground v.1.15,2013-03-28 14:13:00,
2013-03-29 04:18:00,55.5,51.1,30.03,East,96,0.0,1.0,85,0.00,,,0.00,Wunderground v.1.15,2013-03-28 14:18:00,
2013-03-29 04:23:00,55.6,51.2,30.03,ESE,104,1.0,1.0,85,0.00,,,0.00,Wunderground v.1.15,2013-03-28 14:23:00,
2013-03-29 04:33:00,55.6,51.2,30.04,ESE,115,1.0,1.0,85,0.00,,,0.00,Wunderground v.1.15,2013-03-28 14:33:00,
2013-03-29 04:43:00,55.7,50.9,30.04,ESE,121,1.0,1.0,84,0.00,,,0.00,Wunderground v.1.15,2013-03-28 14:43:00,
2013-03-29 04:53:00,55.9,51.1,30.04,ENE,77,2.0,3.0,84,0.00,,,0.00,Wunderground v.1.15,2013-03-28 14:53:00,
2013-03-29 04:58:00,56.1,51.3,30.04,SE,134,1.0,1.0,84,0.00,,,0.00,Wunderground v.1.15,2013-03-28 14:58:00,
2013-03-29 05:03:00,56.2,51.4,30.04,ESE,118,1.0,1.0,84,0.00,,,0.00,Wunderground v.1.15,2013-03-28 15:03:00,
2013-03-29 05:13:00,56.4,51.3,30.05,ESE,112,1.0,1.0,83,0.00,,,0.00,Wunderground v.1.15,2013-03-28 15:13:00,
2013-03-29 05:23:00,56.7,51.6,30.05,East,82,0.0,1.0,83,0.00,,,0.00,Wunderground v.1.15,2013-03-28 15:23:00,
2013-03-29 05:33:00,57.1,51.7,30.05,South,181,1.0,1.0,82,0.00,,,0.00,Wunderground v.1.15,2013-03-28 15:33:00,
2013-03-29 05:43:00,57.4,51.6,30.06,SSE,158,1.0,1.0,81,0.00,,,0.00,Wunderground v.1.15,2013-03-28 15:43:00,
2013-03-29 05:53:00,57.8,51.3,30.06,SSE,158,0.0,0.0,79,0.00,,,0.00,Wunderground v.1.15,2013-03-28 15:53:00,
2013-03-29 05:58:00,58.0,51.2,30.06,South,191,1.0,3.0,78,0.00,,,0.00,Wunderground v.1.15,2013-03-28 15:58:00,
2013-03-29 06:03:00,58.1,51.3,30.06,SW,225,2.0,3.0,78,0.00,,,0.00,Wunderground v.1.15,2013-03-28 16:03:00,
2013-03-29 06:13:00,58.4,51.2,30.07,SSE,155,2.0,2.0,77,0.00,,,0.00,Wunderground v.1.15,2013-03-28 16:13:00,
2013-03-29 06:23:00,58.8,51.6,30.07,SSW,210,2.0,2.0,77,0.00,,,0.00,Wunderground v.1.15,2013-03-28 16:23:00,
2013-03-29 06:28:00,58.9,51.7,30.07,SSW,208,2.0,2.0,77,0.00,,,0.00,Wunderground v.1.15,2013-03-28 16:28:00,
2013-03-29 06:33:00,59.0,51.8,30.08,SW,229,3.0,5.0,77,0.00,,,0.00,Wunderground v.1.15,2013-03-28 16:33:00,
2013-03-29 06:43:00,59.2,51.6,30.08,SSW,193,3.0,4.0,76,0.00,,,0.00,Wunderground v.1.15,2013-03-28 16:43:00,
2013-03-29 06:53:00,59.6,52.0,30.08,SSE,168,3.0,3.0,76,0.00,,,0.00,Wunderground v.1.15,2013-03-28 16:53:00,
2013-03-29 07:03:00,60.1,51.8,30.08,SSE,163,4.0,4.0,74,0.00,,,0.00,Wunderground v.1.15,2013-03-28 17:03:00,
2013-03-29 07:13:00,60.7,52.4,30.09,SE,146,2.0,3.0,74,0.00,,,0.00,Wunderground v.1.15,2013-03-28 17:13:00,
2013-03-29 07:23:00,60.5,52.2,30.09,South,172,3.0,4.0,74,0.00,,,0.00,Wunderground v.1.15,2013-03-28 17:23:00,
2013-03-29 07:33:00,60.4,51.7,30.09,SW,219,4.0,4.0,73,0.00,,,0.00,Wunderground v.1.15,2013-03-28 17:33:00,
2013-03-29 07:43:00,60.5,52.2,30.09,WNW,288,2.0,3.0,74,0.00,,,0.00,Wunderground v.1.15,2013-03-28 17:43:00,
2013-03-29 07:53:00,61.8,53.1,30.09,SSW,195,1.0,2.0,73,0.00,,,0.00,Wunderground v.1.15,2013-03-28 17:53:00,
2013-03-29 08:03:00,62.8,52.5,30.09,WNW,294,1.0,1.0,69,0.00,,,0.00,Wunderground v.1.15,2013-03-28 18:03:00,
2013-03-29 08:13:00,63.7,52.9,30.09,SW,233,1.0,1.0,68,0.00,,,0.00,Wunderground v.1.15,2013-03-28 18:13:00,
2013-03-29 08:18:00,63.3,52.2,30.09,SSW,210,1.0,3.0,67,0.00,,,0.00,Wunderground v.1.15,2013-03-28 18:18:00,
2013-03-29 08:28:00,63.1,52.4,30.08,West,269,2.0,2.0,68,0.00,,,0.00,Wunderground v.1.15,2013-03-28 18:28:00,
2013-03-29 08:33:00,62.8,51.7,30.08,North,352,2.0,2.0,67,0.00,,,0.00,Wunderground v.1.15,2013-03-28 18:33:00,
2013-03-29 08:43:00,63.0,52.3,30.08,West,267,0.0,1.0,68,0.00,,,0.00,Wunderground v.1.15,2013-03-28 18:43:00,
2013-03-29 08:53:00,64.7,53.1,30.08,SSE,155,0.0,0.0,66,0.00,,,0.00,Wunderground v.1.15,2013-03-28 18:53:00,
2013-03-29 09:03:00,65.1,53.0,30.08,SW,217,1.0,4.0,65,0.00,,,0.00,Wunderground v.1.15,2013-03-28 19:03:00,
2013-03-29 09:13:00,64.7,52.2,30.08,NW,319,1.0,2.0,64,0.00,,,0.00,Wunderground v.1.15,2013-03-28 19:13:00,
2013-03-29 09:18:00,64.5,52.5,30.08,ENE,63,0.0,0.0,65,0.00,,,0.00,Wunderground v.1.15,2013-03-28 19:18:00,
2013-03-29 09:23:00,64.2,52.2,30.08,East,82,1.0,1.0,65,0.00,,,0.00,Wunderground v.1.15,2013-03-28 19:23:00,
2013-03-29 09:33:00,64.4,52.4,30.07,ENE,59,1.0,2.0,65,0.00,,,0.00,Wunderground v.1.15,2013-03-28 19:33:00,
2013-03-29 09:38:00,64.6,53.0,30.07,SE,135,1.0,1.0,66,0.00,,,0.00,Wunderground v.1.15,2013-03-28 19:38:00,
2013-03-29 09:48:00,65.6,52.7,30.07,East,95,0.0,0.0,63,0.00,,,0.00,Wunderground v.1.15,2013-03-28 19:48:00,
2013-03-29 09:58:00,65.5,52.6,30.07,SE,146,0.0,3.0,63,0.00,,,0.00,Wunderground v.1.15,2013-03-28 19:58:00,
2013-03-29 10:03:00,65.7,52.3,30.07,SSE,151,1.0,3.0,62,0.00,,,0.00,Wunderground v.1.15,2013-03-28 20:03:00,
2013-03-29 10:13:00,65.8,52.4,30.07,WSW,238,0.0,1.0,62,0.00,,,0.00,Wunderground v.1.15,2013-03-28 20:13:00,
2013-03-29 10:18:00,65.6,52.2,30.07,SE,141,1.0,1.0,62,0.00,,,0.00,Wunderground v.1.15,2013-03-28 20:18:00,
2013-03-29 10:23:00,66.3,52.4,30.07,SW,222,0.0,1.0,61,0.00,,,0.00,Wunderground v.1.15,2013-03-28 20:23:00,
2013-03-29 10:33:00,66.5,52.2,30.07,SW,233,0.0,0.0,60,0.00,,,0.00,Wunderground v.1.15,2013-03-28 20:33:00,
2013-03-29 10:43:00,66.3,52.0,30.07,SSW,207,2.0,2.0,60,0.00,,,0.00,Wunderground v.1.15,2013-03-28 20:43:00,
2013-03-29 10:53:00,66.4,52.1,30.06,NW,318,1.0,1.0,60,0.00,,,0.00,Wunderground v.1.15,2013-03-28 20:53:00,
2013-03-29 11:03:00,67.1,52.7,30.06,North,350,0.0,0.0,60,0.00,,,0.00,Wunderground v.1.15,2013-03-28 21:03:00,
2013-03-29 11:13:00,67.1,52.3,30.06,WNW,301,0.0,2.0,59,0.00,,,0.00,Wunderground v.1.15,2013-03-28 21:13:00,
2013-03-29 11:23:00,66.8,52.0,30.06,WNW,301,1.0,1.0,59,0.00,,,0.00,Wunderground v.1.15,2013-03-28 21:23:00,
2013-03-29 11:33:00,66.7,51.9,30.06,WNW,291,1.0,3.0,59,0.00,,,0.00,Wunderground v.1.15,2013-03-28 21:33:00,
2013-03-29 11:43:00,66.6,51.8,30.06,SW,236,0.0,3.0,59,0.00,,,0.00,Wunderground v.1.15,2013-03-28 21:43:00,
2013-03-29 11:48:00,66.4,51.6,30.06,SW,219,2.0,3.0,59,0.00,,,0.00,Wunderground v.1.15,2013-03-28 21:48:00,
2013-03-29 11:58:00,66.4,53.0,30.06,WSW,253,1.0,4.0,62,0.00,,,0.00,Wunderground v.1.15,2013-03-28 21:58:00,
2013-03-29 12:03:00,66.3,51.5,30.05,NNE,23,1.0,4.0,59,0.00,,,0.00,Wunderground v.1.15,2013-03-28 22:03:00,
2013-03-29 12:13:00,66.5,53.5,30.05,NNW,330,1.0,4.0,63,0.00,,,0.00,Wunderground v.1.15,2013-03-28 22:13:00,
2013-03-29 12:23:00,66.8,53.4,30.05,NNW,342,2.0,3.0,62,0.00,,,0.00,Wunderground v.1.15,2013-03-28 22:23:00,
2013-03-29 12:33:00,67.4,53.0,30.04,NNE,19,2.0,6.0,60,0.00,,,0.00,Wunderground v.1.15,2013-03-28 22:33:00,
2013-03-29 12:38:00,67.6,53.2,30.04,NE,46,1.0,1.0,60,0.00,,,0.00,Wunderground v.1.15,2013-03-28 22:38:00,
2013-03-29 12:48:00,67.7,52.9,30.04,North,356,3.0,3.0,59,0.00,,,0.00,Wunderground v.1.15,2013-03-28 22:48:00,
2013-03-29 12:58:00,67.5,52.2,30.04,ENE,69,1.0,1.0,58,0.00,,,0.00,Wunderground v.1.15,2013-03-28 22:58:00,
2013-03-29 13:03:00,67.8,52.5,30.04,ENE,60,1.0,3.0,58,0.00,,,0.00,Wunderground v.1.15,2013-03-28 23:03:00,
2013-03-29 13:13:00,68.4,53.0,30.03,NE,44,2.0,2.0,58,0.00,,,0.00,Wunderground v.1.15,2013-03-28 23:13:00,
2013-03-29 13:18:00,68.6,52.8,30.04,NW,308,1.0,3.0,57,0.00,,,0.00,Wunderground v.1.15,2013-03-28 23:18:00,
2013-03-29 13:28:00,68.5,52.7,30.03,WNW,292,2.0,4.0,57,0.00,,,0.00,Wunderground v.1.15,2013-03-28 23:28:00,
2013-03-29 13:33:00,68.6,52.8,30.03,WNW,293,2.0,4.0,57,0.00,,,0.00,Wunderground v.1.15,2013-03-28 23:33:00,
2013-03-29 13:43:00,68.8,52.9,30.03,NW,313,3.0,4.0,57,0.00,,,0.00,Wunderground v.1.15,2013-03-28 23:43:00,
2013-03-29 13:53:00,69.3,52.9,30.04,WNW,287,3.0,6.0,56,0.00,,,0.00,Wunderground v.1.15,2013-03-28 23:53:00,
2013-03-29 13:58:00,69.1,52.7,30.03,NNW,332,4.0,8.0,56,0.00,,,0.00,Wunderground v.1.15,2013-03-28 23:58:00,
2013-03-29 14:03:00,69.3,52.9,30.03,WNW,284,4.0,8.0,56,0.00,,,0.00,Wunderground v.1.15,2013-03-29 00:03:00,
2013-03-29 14:13:00,68.9,51.6,30.04,WNW,295,5.0,6.0,54,0.00,,,0.00,Wunderground v.1.15,2013-03-29 00:13:00,
2013-03-29 14:23:00,69.2,51.8,30.04,NNW,328,4.0,6.0,54,0.00,,,0.00,Wunderground v.1.15,2013-03-29 00:23:00,
2013-03-29 14:33:00,69.6,51.7,30.04,WNW,294,3.0,8.0,53,0.00,,,0.00,Wunderground v.1.15,2013-03-29 00:33:00,
2013-03-29 14:38:00,68.7,51.9,30.04,WNW,292,4.0,6.0,55,0.00,,,0.00,Wunderground v.1.15,2013-03-29 00:38:00,
2013-03-29 14:48:00,68.5,52.2,30.04,WNW,302,3.0,3.0,56,0.00,,,0.00,Wunderground v.1.15,2013-03-29 00:48:00,
2013-03-29 14:58:00,68.3,52.0,30.04,West,264,3.0,3.0,56,0.00,,,0.00,Wunderground v.1.15,2013-03-29 00:58:00,
2013-03-29 15:03:00,68.2,52.4,30.04,WNW,295,4.0,4.0,57,0.00,,,0.00,Wunderground v.1.15,2013-03-29 01:03:00,
2013-03-29 15:13:00,67.6,52.3,30.04,NNW,333,4.0,6.0,58,0.00,,,0.00,Wunderground v.1.15,2013-03-29 01:13:00,
2013-03-29 15:18:00,67.4,52.6,30.04,North,352,4.0,4.0,59,0.00,,,0.00,Wunderground v.1.15,2013-03-29 01:18:00,
2013-03-29 15:23:00,67.2,51.9,30.04,NW,304,3.0,4.0,58,0.00,,,0.00,Wunderground v.1.15,2013-03-29 01:23:00,
2013-03-29 15:28:00,67.0,52.2,30.04,NW,305,3.0,4.0,59,0.00,,,0.00,Wunderground v.1.15,2013-03-29 01:28:00,
2013-03-29 15:33:00,66.7,53.7,30.04,West,271,4.0,4.0,63,0.00,,,0.00,Wunderground v.1.15,2013-03-29 01:33:00,
2013-03-29 15:43:00,66.2,54.5,30.04,WNW,284,4.0,5.0,66,0.00,,,0.00,Wunderground v.1.15,2013-03-29 01:43:00,
2013-03-29 15:48:00,65.9,54.6,30.04,West,273,4.0,4.0,67,0.00,,,0.00,Wunderground v.1.15,2013-03-29 01:48:00,
2013-03-29 15:53:00,65.6,54.8,30.04,NW,305,4.0,7.0,68,0.00,,,0.00,Wunderground v.1.15,2013-03-29 01:53:00,
2013-03-29 16:03:00,65.1,54.7,30.04,WNW,299,4.0,5.0,69,0.00,,,0.00,Wunderground v.1.15,2013-03-29 02:03:00,
2013-03-29 16:13:00,64.3,54.3,30.04,WNW,283,5.0,7.0,70,0.00,,,0.00,Wunderground v.1.15,2013-03-29 02:13:00,
2013-03-29 16:18:00,64.0,54.0,30.04,NW,307,4.0,6.0,70,0.00,,,0.00,Wunderground v.1.15,2013-03-29 02:18:00,
2013-03-29 16:23:00,63.7,54.1,30.04,WNW,291,4.0,6.0,71,0.00,,,0.00,Wunderground v.1.15,2013-03-29 02:23:00,
2013-03-29 16:33:00,63.3,54.1,30.04,NW,305,4.0,4.0,72,0.00,,,0.00,Wunderground v.1.15,2013-03-29 02:33:00,
2013-03-29 16:43:00,62.8,53.6,30.05,WNW,290,4.0,4.0,72,0.00,,,0.00,Wunderground v.1.15,2013-03-29 02:43:00,
2013-03-29 16:53:00,62.5,53.3,30.05,WNW,285,3.0,4.0,72,0.00,,,0.00,Wunderground v.1.15,2013-03-29 02:53:00,
2013-03-29 16:58:00,62.3,53.2,30.05,NW,319,3.0,3.0,72,0.00,,,0.00,Wunderground v.1.15,2013-03-29 02:58:00,
2013-03-29 17:03:00,62.1,53.0,30.05,NW,316,3.0,3.0,72,0.00,,,0.00,Wunderground v.1.15,2013-03-29 03:03:00,
2013-03-29 17:13:00,61.6,53.2,30.06,NW,326,2.0,3.0,74,0.00,,,0.00,Wunderground v.1.15,2013-03-29 03:13:00,
2013-03-29 17:18:00,61.3,53.3,30.06,NW,318,2.0,3.0,75,0.00,,,0.00,Wunderground v.1.15,2013-03-29 03:18:00,
2013-03-29 17:28:00,60.8,53.2,30.06,WNW,289,2.0,2.0,76,0.00,,,0.00,Wunderground v.1.15,2013-03-29 03:28:00,
2013-03-29 17:38:00,60.3,53.1,30.06,NNW,341,2.0,2.0,77,0.00,,,0.00,Wunderground v.1.15,2013-03-29 03:38:00,
2013-03-29 17:48:00,59.9,53.4,30.06,NNW,345,3.0,3.0,79,0.00,,,0.00,Wunderground v.1.15,2013-03-29 03:48:00,
2013-03-29 17:53:00,59.7,53.2,30.06,NNE,18,3.0,3.0,79,0.00,,,0.00,Wunderground v.1.15,2013-03-29 03:53:00,
2013-03-29 18:03:00,59.5,53.3,30.06,NNW,340,2.0,3.0,80,0.00,,,0.00,Wunderground v.1.15,2013-03-29 04:03:00,
2013-03-29 18:08:00,59.4,53.2,30.07,NNW,330,2.0,2.0,80,0.00,,,0.00,Wunderground v.1.15,2013-03-29 04:08:00,
2013-03-29 18:13:00,59.3,53.1,30.07,NNW,339,2.0,4.0,80,0.00,,,0.00,Wunderground v.1.15,2013-03-29 04:13:00,
2013-03-29 18:23:00,59.0,53.2,30.07,NNE,15,3.0,5.0,81,0.00,,,0.00,Wunderground v.1.15,2013-03-29 04:23:00,
2013-03-29 18:28:00,58.8,53.0,30.07,NNE,13,3.0,3.0,81,0.00,,,0.00,Wunderground v.1.15,2013-03-29 04:28:00,
2013-03-29 18:33:00,58.7,52.9,30.07,North,8,2.0,3.0,81,0.00,,,0.00,Wunderground v.1.15,2013-03-29 04:33:00,
2013-03-29 18:38:00,58.6,53.1,30.07,NNE,18,2.0,2.0,82,0.00,,,0.00,Wunderground v.1.15,2013-03-29 04:38:00,
2013-03-29 18:48:00,58.3,52.8,30.07,NNW,330,2.0,2.0,82,0.00,,,0.00,Wunderground v.1.15,2013-03-29 04:48:00,
2013-03-29 18:58:00,58.0,52.9,30.08,NNW,338,2.0,2.0,83,0.00,,,0.00,Wunderground v.1.15,2013-03-29 04:58:00,
2013-03-29 19:08:00,57.8,53.0,30.08,North,351,1.0,1.0,84,0.00,,,0.00,Wunderground v.1.15,2013-03-29 05:08:00,
2013-03-29 19:13:00,57.6,52.8,30.08,WNW,292,1.0,1.0,84,0.00,,,0.00,Wunderground v.1.15,2013-03-29 05:13:00,
2013-03-29 19:18:00,57.5,53.0,30.08,NW,315,1.0,3.0,85,0.00,,,0.00,Wunderground v.1.15,2013-03-29 05:18:00,
2013-03-29 19:28:00,57.2,53.0,30.08,NW,304,0.0,2.0,86,0.00,,,0.00,Wunderground v.1.15,2013-03-29 05:28:00,
2013-03-29 19:33:00,57.1,53.0,30.08,NW,309,0.0,2.0,86,0.00,,,0.00,Wunderground v.1.15,2013-03-29 05:33:00,
2013-03-29 19:38:00,56.9,52.8,30.08,NNW,345,0.0,1.0,86,0.00,,,0.00,Wunderground v.1.15,2013-03-29 05:38:00,
2013-03-29 19:48:00,56.7,52.9,30.08,NNW,345,1.0,1.0,87,0.00,,,0.00,Wunderground v.1.15,2013-03-29 05:48:00,
2013-03-29 19:53:00,56.5,52.7,30.08,North,353,1.0,1.0,87,0.00,,,0.00,Wunderground v.1.15,2013-03-29 05:53:00,
2013-03-29 20:03:00,56.3,52.8,30.08,NW,309,0.0,0.0,88,0.00,,,0.00,Wunderground v.1.15,2013-03-29 06:03:00,
2013-03-29 20:18:00,56.1,52.6,30.08,NW,315,0.0,0.0,88,0.00,,,0.00,Wunderground v.1.15,2013-03-29 06:18:00,
2013-03-29 20:28:00,55.8,52.3,30.08,NW,307,0.0,0.0,88,0.00,,,0.00,Wunderground v.1.15,2013-03-29 06:28:00,
2013-03-29 20:33:00,55.7,52.2,30.08,NNW,329,0.0,0.0,88,0.00,,,0.00,Wunderground v.1.15,2013-03-29 06:33:00,
2013-03-29 20:38:00,55.6,52.4,30.08,NW,305,0.0,1.0,89,0.00,,,0.00,Wunderground v.1.15,2013-03-29 06:38:00,
2013-03-29 20:48:00,55.3,52.1,30.08,WNW,283,1.0,1.0,89,0.00,,,0.00,Wunderground v.1.15,2013-03-29 06:48:00,
2013-03-29 20:53:00,55.1,51.9,30.08,NW,316,1.0,1.0,89,0.00,,,0.00,Wunderground v.1.15,2013-03-29 06:53:00,
2013-03-29 21:03:00,54.9,52.0,30.08,NW,304,0.0,0.0,90,0.00,,,0.00,Wunderground v.1.15,2013-03-29 07:03:00,
2013-03-29 21:13:00,54.6,51.7,30.08,NW,316,1.0,1.0,90,0.00,,,0.00,Wunderground v.1.15,2013-03-29 07:13:00,
2013-03-29 21:18:00,54.5,51.6,30.07,WNW,296,1.0,3.0,90,0.00,,,0.00,Wunderground v.1.15,2013-03-29 07:18:00,
2013-03-29 21:28:00,54.3,51.4,30.07,NW,324,1.0,1.0,90,0.00,,,0.00,Wunderground v.1.15,2013-03-29 07:28:00,
2013-03-29 21:38:00,53.9,51.3,30.07,NW,316,1.0,1.0,91,0.00,,,0.00,Wunderground v.1.15,2013-03-29 07:38:00,
2013-03-29 21:48:00,53.6,51.0,30.07,WNW,290,1.0,2.0,91,0.00,,,0.00,Wunderground v.1.15,2013-03-29 07:48:00,
2013-03-29 21:53:00,53.5,51.2,30.07,NW,321,2.0,2.0,92,0.00,,,0.00,Wunderground v.1.15,2013-03-29 07:53:00,
2013-03-29 22:03:00,53.2,50.9,30.07,NW,308,2.0,3.0,92,0.00,,,0.00,Wunderground v.1.15,2013-03-29 08:03:00,
2013-03-29 22:13:00,53.0,50.7,30.07,NW,315,2.0,3.0,92,0.00,,,0.00,Wunderground v.1.15,2013-03-29 08:13:00,
2013-03-29 22:18:00,52.9,50.9,30.07,NW,319,2.0,3.0,93,0.00,,,0.00,Wunderground v.1.15,2013-03-29 08:18:00,
2013-03-29 22:23:00,52.7,50.7,30.07,NNW,333,2.0,3.0,93,0.00,,,0.00,Wunderground v.1.15,2013-03-29 08:23:00,
2013-03-29 22:33:00,52.3,50.3,30.07,NW,312,2.0,2.0,93,0.00,,,0.00,Wunderground v.1.15,2013-03-29 08:33:00,
2013-03-29 22:43:00,52.1,50.1,30.07,WNW,289,2.0,2.0,93,0.00,,,0.00,Wunderground v.1.15,2013-03-29 08:43:00,
2013-03-29 22:53:00,51.9,50.2,30.07,West,262,3.0,3.0,94,0.00,,,0.00,Wunderground v.1.15,2013-03-29 08:53:00,
2013-03-29 22:58:00,51.8,50.1,30.08,WNW,300,2.0,2.0,94,0.00,,,0.00,Wunderground v.1.15,2013-03-29 08:58:00,
2013-03-29 23:03:00,51.6,49.9,30.08,West,259,2.0,2.0,94,0.00,,,0.00,Wunderground v.1.15,2013-03-29 09:03:00,
2013-03-29 23:13:00,51.3,49.6,30.08,NW,312,2.0,3.0,94,0.00,,,0.00,Wunderground v.1.15,2013-03-29 09:13:00,
2013-03-29 23:23:00,50.9,49.2,30.08,NNW,336,2.0,3.0,94,0.00,,,0.00,Wunderground v.1.15,2013-03-29 09:23:00,
2013-03-29 23:33:00,50.6,49.2,30.08,WNW,290,2.0,2.0,95,0.00,,,0.00,Wunderground v.1.15,2013-03-29 09:33:00,
2013-03-29 23:38:00,50.5,49.1,30.08,NW,311,1.0,3.0,95,0.00,,,0.00,Wunderground v.1.15,2013-03-29 09:38:00,
2013-03-29 23:48:00,50.4,49.0,30.08,NNW,335,3.0,3.0,95,0.00,,,0.00,Wunderground v.1.15,2013-03-29 09:48:00,
2013-03-29 23:58:00,50.3,49.2,30.08,NW,317,2.0,3.0,96,0.00,,,0.00,Wunderground v.1.15,2013-03-29 09:58:00,